Weather History for Gustavus, AK

Change the Weather History Date:

Friday, October 14, 2011

  Actual Average Record
Temperature  
Mean Temperature 42 °F -  
Max Temperature 46 °F 48 °F 53 °F (1991)
Min Temperature 37 °F 37 °F 23 °F (1989)
Degree Days  
Heating Degree Days 24    
Moisture  
Dew Point 37 °F    
Average Humidity 81    
Maximum Humidity 93    
Minimum Humidity 71    
Precipitation  
Precipitation 0.00 in - - ()
Sea Level Pressure  
Sea Level Pressure 30.05 in    
Wind  
Wind Speed 3 mph (SE)    
Max Wind Speed 13 mph    
Max Gust Speed -    
Visibility 10 miles    
Events      
Averages and records for this station are not official NWS values.
T = Trace of Precipitation, MM = Missing Value Source: NWS Daily Summary

Daily Weather History Graph

Daily Weather History Graph

Search for Another Location

Airport:

Trip Planner

Search our weather history database for the weather conditions in past years. The results will help you decide how hot, cold, wet, or windy it might be!

Date:

Astronomy

Oct. 14, 2011 Rise Set
Actual Time 7:36 AM AKDT 6:00 PM AKDT
Civil Twilight 6:56 AM AKDT 6:40 PM AKDT
Nautical Twilight 6:10 AM AKDT 7:26 PM AKDT
Astronomical Twilight 5:23 AM AKDT 8:12 PM AKDT
Moon 6:24 PM AKDT (10/14) 11:04 AM AKDT (10/14)
Length of Visible Light 11h 44m
Length of Day
10h 23m
Waning Gibbous, 93% of the Moon is Illuminated
Oct 14
Waning Gibbous
Oct 19
Last Quarter
Oct 26
New
Nov 2
First Quarter
Nov 10
Full

Hourly Weather History & Observations

Time (AKDT) Temp. Windchill Dew Point Humidity Pressure Visibility Wind Dir Wind Speed Gust Speed Precip Events Conditions
12:16 AM 39.2 °F - 37.4 °F 93% 30.11 in 10.0 mi Calm Calm - N/A   Overcast
12:36 AM 39.2 °F - 37.4 °F 93% 30.10 in 10.0 mi Calm Calm - N/A   Overcast
12:56 AM 39.2 °F - 37.4 °F 93% 30.11 in 10.0 mi Calm Calm - N/A   Overcast
1:16 AM 39.2 °F - 37.4 °F 93% 30.10 in 10.0 mi Calm Calm - N/A   Overcast
1:36 AM 39.2 °F - 35.6 °F 87% 30.10 in 10.0 mi Calm Calm - N/A   Overcast
1:56 AM 39.2 °F - 35.6 °F 87% 30.10 in 10.0 mi Calm Calm - N/A   Overcast
2:16 AM 39.2 °F - 37.4 °F 93% 30.10 in 10.0 mi Calm Calm - N/A   Overcast
2:36 AM 39.2 °F - 35.6 °F 87% 30.10 in 10.0 mi Calm Calm - N/A   Overcast
2:56 AM 39.2 °F - 35.6 °F 87% 30.10 in 10.0 mi Calm Calm - N/A   Overcast
3:16 AM 39.2 °F - 37.4 °F 93% 30.10 in 10.0 mi Calm Calm - N/A   Overcast
3:36 AM 39.2 °F - 35.6 °F 87% 30.09 in 10.0 mi Calm Calm - N/A   Overcast
3:56 AM 39.2 °F 37.0 °F 37.4 °F 93% 30.10 in 10.0 mi North 3.5 mph - N/A   Overcast
4:16 AM 39.2 °F - 35.6 °F 87% 30.10 in 10.0 mi Calm Calm - N/A   Overcast
4:36 AM 39.2 °F - 35.6 °F 87% 30.10 in 10.0 mi Calm Calm - N/A   Overcast
4:56 AM 39.2 °F - 37.4 °F 93% 30.09 in 10.0 mi Calm Calm - N/A   Overcast
5:16 AM 39.2 °F - 35.6 °F 87% 30.09 in 10.0 mi Calm Calm - N/A   Overcast
5:36 AM 39.2 °F - 35.6 °F 87% 30.09 in 10.0 mi Calm Calm - N/A   Overcast
5:56 AM 39.2 °F - 35.6 °F 87% 30.08 in 10.0 mi Calm Calm - N/A   Overcast
6:16 AM 39.2 °F - 35.6 °F 87% 30.08 in 10.0 mi Calm Calm - N/A   Overcast
6:36 AM 39.2 °F - 35.6 °F 87% 30.08 in 10.0 mi Calm Calm - N/A   Overcast
6:56 AM 39.2 °F - 37.4 °F 93% 30.08 in 10.0 mi Calm Calm - N/A   Overcast
7:16 AM 39.2 °F - 35.6 °F 87% 30.08 in 10.0 mi Calm Calm - N/A   Overcast
7:36 AM 37.4 °F - 35.6 °F 93% 30.07 in 10.0 mi Calm Calm - N/A   Overcast
7:56 AM 37.4 °F 34.9 °F 35.6 °F 93% 30.07 in 10.0 mi NE 3.5 mph - N/A   Overcast
8:16 AM 39.2 °F - 37.4 °F 93% 30.07 in 10.0 mi Calm Calm - N/A   Overcast
8:36 AM 42.8 °F - 37.4 °F 81% 30.06 in 10.0 mi Calm Calm - N/A   Overcast
8:56 AM 42.8 °F - 39.2 °F 87% 30.06 in 10.0 mi Calm Calm - N/A   Overcast
9:16 AM 44.6 °F 43.1 °F 39.2 °F 81% 30.06 in 10.0 mi SSE 3.5 mph - N/A   Overcast
9:36 AM 44.6 °F 40.7 °F 39.2 °F 81% 30.06 in 10.0 mi SE 6.9 mph - N/A   Overcast
9:56 AM 44.6 °F 42.2 °F 39.2 °F 81% 30.06 in 10.0 mi SE 4.6 mph - N/A   Overcast
10:16 AM 44.6 °F 41.4 °F 39.2 °F 81% 30.07 in 10.0 mi SE 5.8 mph - N/A   Overcast
10:36 AM 44.6 °F 43.1 °F 39.2 °F 81% 30.07 in 10.0 mi SSE 3.5 mph - N/A   Overcast
10:56 AM 44.6 °F 40.2 °F 39.2 °F 81% 30.07 in 10.0 mi SE 8.1 mph - N/A   Overcast
11:16 AM 44.6 °F 42.2 °F 37.4 °F 76% 30.07 in 10.0 mi SSE 4.6 mph - N/A   Overcast
11:36 AM 44.6 °F 40.2 °F 37.4 °F 76% 30.07 in 10.0 mi SE 8.1 mph - N/A   Overcast
11:56 AM 44.6 °F 40.2 °F 37.4 °F 76% 30.06 in 10.0 mi ESE 8.1 mph - N/A   Overcast
12:16 PM 46.4 °F 41.5 °F 37.4 °F 71% 30.06 in 10.0 mi ESE 10.4 mph - N/A   Overcast
12:36 PM 46.4 °F 40.7 °F 37.4 °F 71% 30.06 in 10.0 mi SE 12.7 mph - N/A   Overcast
1:16 PM 46.4 °F 40.7 °F 37.4 °F 71% 30.06 in 10.0 mi ESE 12.7 mph - N/A   Overcast
1:36 PM 46.4 °F 41.1 °F 37.4 °F 71% 30.05 in 10.0 mi ESE 11.5 mph - N/A   Overcast
1:56 PM 46.4 °F 41.5 °F 37.4 °F 71% 30.05 in 10.0 mi ESE 10.4 mph - N/A   Overcast
2:16 PM 46.4 °F 41.5 °F 37.4 °F 71% 30.05 in 10.0 mi ESE 10.4 mph - N/A   Overcast
2:36 PM 46.4 °F 41.9 °F 37.4 °F 71% 30.04 in 10.0 mi ESE 9.2 mph - N/A   Overcast
2:56 PM 46.4 °F 41.5 °F 37.4 °F 71% 30.04 in 10.0 mi ESE 10.4 mph - N/A   Overcast
3:16 PM 46.4 °F 42.4 °F 37.4 °F 71% 30.03 in 10.0 mi ESE 8.1 mph - N/A   Overcast
3:36 PM 46.4 °F 42.9 °F 37.4 °F 71% 30.03 in 10.0 mi ESE 6.9 mph - N/A   Overcast
3:56 PM 46.4 °F 42.4 °F 37.4 °F 71% 30.02 in 10.0 mi SE 8.1 mph - N/A   Overcast
4:16 PM 46.4 °F 42.4 °F 37.4 °F 71% 30.02 in 10.0 mi SE 8.1 mph - N/A   Overcast
4:36 PM 46.4 °F 42.4 °F 37.4 °F 71% 30.02 in 10.0 mi SE 8.1 mph - N/A   Overcast
5:16 PM 46.4 °F 41.1 °F 37.4 °F 71% 30.00 in 10.0 mi SE 11.5 mph - N/A   Overcast
5:36 PM 46.4 °F 41.9 °F 37.4 °F 71% 30.00 in 10.0 mi SE 9.2 mph - N/A   Overcast
5:56 PM 46.4 °F 42.4 °F 37.4 °F 71% 30.00 in 10.0 mi SE 8.1 mph - N/A   Overcast
6:16 PM 44.6 °F 40.2 °F 37.4 °F 76% 30.00 in 10.0 mi SE 8.1 mph - N/A   Overcast
6:36 PM 44.6 °F 39.2 °F 37.4 °F 76% 29.99 in 10.0 mi SE 10.4 mph - N/A   Overcast
6:56 PM 44.6 °F 39.7 °F 37.4 °F 76% 29.99 in 10.0 mi SE 9.2 mph - N/A   Overcast
7:16 PM 44.6 °F 39.7 °F 37.4 °F 76% 29.99 in 10.0 mi SE 9.2 mph - N/A   Overcast
7:36 PM 44.6 °F 39.2 °F 37.4 °F 76% 29.99 in 10.0 mi SE 10.4 mph - N/A   Overcast
7:56 PM 44.6 °F 39.2 °F 37.4 °F 76% 29.99 in 10.0 mi SE 10.4 mph - N/A   Overcast
8:16 PM 44.6 °F 38.8 °F 37.4 °F 76% 29.99 in 10.0 mi SE 11.5 mph - N/A   Overcast
8:36 PM 44.6 °F 38.4 °F 37.4 °F 76% 29.99 in 10.0 mi SE 12.7 mph - N/A   Overcast
8:56 PM 44.6 °F 38.4 °F 37.4 °F 76% 29.99 in 10.0 mi SE 12.7 mph - N/A   Overcast
9:16 PM 44.6 °F 39.2 °F 37.4 °F 76% 29.98 in 10.0 mi SE 10.4 mph - N/A   Overcast
9:36 PM 44.6 °F 39.2 °F 37.4 °F 76% 29.98 in 10.0 mi SE 10.4 mph - N/A   Overcast
9:56 PM 44.6 °F 39.7 °F 37.4 °F 76% 29.97 in 10.0 mi SE 9.2 mph - N/A   Overcast
10:16 PM 44.6 °F 40.2 °F 37.4 °F 76% 29.97 in 10.0 mi SE 8.1 mph - N/A   Overcast
10:36 PM 44.6 °F 39.7 °F 37.4 °F 76% 29.97 in 10.0 mi SE 9.2 mph - N/A   Overcast
10:56 PM 44.6 °F 39.7 °F 37.4 °F 76% 29.96 in 10.0 mi SE 9.2 mph - N/A   Overcast
11:16 PM 44.6 °F 38.8 °F 37.4 °F 76% 29.96 in 10.0 mi SE 11.5 mph - N/A   Overcast
11:36 PM 44.6 °F 38.8 °F 37.4 °F 76% 29.96 in 10.0 mi SE 11.5 mph - N/A   Overcast
11:56 PM 44.6 °F 37.8 °F 37.4 °F 76% 29.96 in 10.0 mi SE 15.0 mph 20.7 mph N/A   Overcast